Zurück zum Katalog

THORAD DELTA 1 DEB

AktivLEO
NORAD 42601·DEBRIS·🇺🇸 United States

Gestartet Nov 15, 1974 von Vandenberg Space Force Base

Loading…

Nächste Überflüge (nächste 24 Stunden)

TLE

VeraltetSource: Space-Track

Epoche: Sep 6, 2026, 03:56 UTC

1 42601U 74089FS  26249.16400556  .00000130  00000-0  43663-3 0  9990
2 42601 101.4951 227.9630 0314548 116.3207 308.4799 13.04785077999807

Verfolge THORAD DELTA 1 DEB in Echtzeit mit AllMySat

Download on the App Store